Voltar ao catálogo

STARLINK-32293

AtivoComunicaçõesVLEO
NORAD 61526·PAYLOAD·🇺🇸 United States

Lançado Oct 15, 2024 de Cape Canaveral Space Force Station

Loading…

Próximas Passagens (próximas 24 horas)

TLE

AtualizadoSource: CelesTrak SupGP

Época: Sep 15, 2026, 02:42 UTC

1 61526C 24183T   26258.11298611  .00072481  00000+0  21412-2 0  2581
2 61526  53.1588 340.6728 0001097  80.8676 182.4159 15.34358617    18

Acompanhe STARLINK-32293 em tempo real com AllMySat

Download on the App Store